Linden, NJ

11:13 AM EDT on May 27, 2017 (GMT -0400)
Linden

Weather History for KLDJ - February, 2013

Change the Weather History Date:

Wednesday, February 20, 2013

  Actual Average (KEWR) Record (KEWR)
Temperature  
Mean Temperature 32 °F -  
Max Temperature 37 °F 44 °F 70 °F (1994)
Min Temperature 27 °F 29 °F 1 °F (2015)
Degree Days  
Heating Degree Days 32    
Moisture  
Dew Point 14 °F    
Average Humidity 48    
Maximum Humidity 60    
Minimum Humidity 38    
Precipitation  
Precipitation 0.02 in - - ()
Sea Level Pressure  
Sea Level Pressure 29.88 in    
Wind  
Wind Speed 18 mph (WNW)    
Max Wind Speed 26 mph    
Max Gust Speed 38 mph    
Visibility 10 miles    
Events      
Averages and records for this station are not official NWS values.
T = Trace of Precipitation, MM = Missing Value Source: NWS Daily Summary

Daily Weather History Graph

Daily Weather History Graph

Search for Another Location

Airport or City:

Trip Planner

Search our weather history database for the weather conditions in past years. The results will help you decide how hot, cold, wet, or windy it might be!

Date:

Astronomy

Feb. 20, 2013 Rise Set
Actual Time 6:43 AM EST 5:38 PM EST
Civil Twilight 6:15 AM EST 6:05 PM EST
Nautical Twilight 5:44 AM EST 6:37 PM EST
Astronomical Twilight 5:12 AM EST 7:09 PM EST
Moon 12:56 PM EST (2/20) 3:02 AM EST (2/20)
Length of Visible Light 11h 50m
Length of Day
10h 54m
Waxing Gibbous, 76% of the Moon is Illuminated
Feb 20
Waxing Gibbous
Feb 25
Full
Mar 4
Last Quarter
Mar 11
New
Mar 19
First Quarter

Hourly Weather History & Observations

Time (EST) Temp. Windchill Dew Point Humidity Pressure Visibility Wind Dir Wind Speed Gust Speed Precip Events Conditions
12:15 AM 38.7 °F 29.1 °F 25.9 °F 60% 29.75 in 10.0 mi WNW 18.4 mph 24.2 mph N/A   Scattered Clouds
12:35 AM 38.3 °F 30.1 °F 25.2 °F 59% 29.75 in 10.0 mi WNW 13.8 mph 24.2 mph N/A   Clear
12:55 AM 37.9 °F 28.2 °F 23.5 °F 56% 29.75 in 10.0 mi West 18.4 mph 31.1 mph N/A   Clear
1:15 AM 37.4 °F 26.9 °F 23.0 °F 56% 29.75 in 10.0 mi West 20.7 mph 28.8 mph N/A   Clear
1:35 AM 37.0 °F 27.7 °F 23.0 °F 57% 29.75 in 10.0 mi West 16.1 mph 27.6 mph N/A   Scattered Clouds
2:15 AM 36.1 °F 26.2 °F 23.0 °F 59% 29.76 in 10.0 mi West 17.3 mph 32.2 mph N/A   Clear
2:35 AM 35.6 °F 25.2 °F 22.1 °F 58% 29.77 in 10.0 mi West 18.4 mph 28.8 mph N/A   Clear
3:15 AM 34.7 °F 23.4 °F 20.3 °F 56% 29.77 in 10.0 mi West 20.7 mph 31.1 mph N/A   Clear
3:35 AM 34.2 °F 24.8 °F 19.4 °F 55% 29.78 in 10.0 mi WNW 13.8 mph 28.8 mph N/A   Clear
3:55 AM 33.6 °F 22.9 °F 18.9 °F 55% 29.78 in 10.0 mi WNW 17.3 mph 28.8 mph N/A   Clear
4:15 AM 33.4 °F 22.0 °F 17.6 °F 52% 29.78 in 10.0 mi West 19.6 mph 33.4 mph N/A   Clear
4:35 AM 33.1 °F 23.0 °F 17.6 °F 53% 29.79 in 10.0 mi West 15.0 mph 19.6 mph N/A   Clear
4:55 AM 32.7 °F 21.8 °F 17.6 °F 54% 29.80 in 10.0 mi West 17.3 mph 23.0 mph N/A   Clear
5:15 AM 32.5 °F 20.8 °F 17.4 °F 54% 29.80 in 10.0 mi West 19.6 mph 26.5 mph N/A   Clear
5:35 AM 32.4 °F 22.1 °F 18.0 °F 55% 29.81 in 10.0 mi West 15.0 mph 27.6 mph N/A   Clear
5:55 AM 32.2 °F 22.3 °F 18.1 °F 56% 29.81 in 10.0 mi West 13.8 mph 24.2 mph N/A   Clear
6:15 AM 32.0 °F 23.6 °F 18.9 °F 58% 29.82 in 10.0 mi West 10.4 mph - N/A   Clear
6:35 AM 32.0 °F 20.8 °F 18.3 °F 57% 29.83 in 10.0 mi West 17.3 mph 20.7 mph N/A   Clear
7:15 AM 32.0 °F 19.8 °F 16.9 °F 54% 29.84 in 10.0 mi West 20.7 mph 27.6 mph N/A   Clear
7:35 AM 32.0 °F 21.6 °F 16.7 °F 53% 29.86 in 10.0 mi West 15.0 mph 25.3 mph N/A   Clear
7:55 AM 32.0 °F 19.8 °F 16.7 °F 53% 29.87 in 10.0 mi WNW 20.7 mph 27.6 mph N/A   Scattered Clouds
8:15 AM 32.0 °F 19.5 °F 14.7 °F 49% 29.88 in 10.0 mi WNW 21.9 mph 29.9 mph N/A   Scattered Clouds
8:55 AM 32.5 °F 20.8 °F 13.8 °F 46% 29.88 in 10.0 mi West 19.6 mph 27.6 mph N/A   Clear
9:15 AM 32.2 °F 21.4 °F 14.0 °F 47% 29.88 in 10.0 mi West 16.1 mph 28.8 mph N/A   Scattered Clouds
9:35 AM 32.5 °F 19.9 °F 13.3 °F 45% 29.88 in 10.0 mi West 23.0 mph 31.1 mph N/A   Scattered Clouds
9:55 AM 32.7 °F 21.8 °F 16.2 °F 51% 29.88 in 10.0 mi West 17.3 mph 28.8 mph N/A   Mostly Cloudy
10:15 AM 32.4 °F 22.5 °F 16.2 °F 51% 29.88 in 10.0 mi West 13.8 mph 24.2 mph N/A   Overcast
10:35 AM 32.4 °F 19.1 °F 14.9 °F 49% 29.88 in 10.0 mi West 25.3 mph 32.2 mph N/A   Overcast
10:55 AM 33.3 °F 20.3 °F 13.8 °F 45% 29.88 in 10.0 mi WNW 25.3 mph 32.2 mph N/A   Mostly Cloudy
11:15 AM 33.8 °F 21.3 °F 13.3 °F 43% 29.88 in 10.0 mi WNW 24.2 mph 33.4 mph N/A   Mostly Cloudy
11:35 AM 33.8 °F 21.3 °F 12.9 °F 42% 29.87 in 10.0 mi West 24.2 mph 35.7 mph N/A   Mostly Cloudy
12:15 PM 33.4 °F 22.7 °F 12.2 °F 42% 29.87 in 10.0 mi WNW 17.3 mph 27.6 mph N/A   Mostly Cloudy
12:35 PM 33.1 °F 21.5 °F 12.0 °F 42% 29.87 in 10.0 mi West 19.6 mph 32.2 mph N/A   Overcast
12:55 PM 32.9 °F 20.4 °F 11.3 °F 41% 29.86 in 10.0 mi West 23.0 mph 29.9 mph N/A   Mostly Cloudy
1:15 PM 32.9 °F 20.7 °F 11.7 °F 41% 29.86 in 10.0 mi WNW 21.9 mph 34.5 mph N/A   Mostly Cloudy
1:35 PM 32.9 °F 19.8 °F 11.8 °F 42% 29.86 in 10.0 mi WNW 25.3 mph 32.2 mph N/A   Mostly Cloudy
1:55 PM 32.9 °F 20.7 °F 11.5 °F 41% 29.87 in 10.0 mi West 21.9 mph 32.2 mph N/A   Mostly Cloudy
2:15 PM 32.4 °F 20.0 °F 10.6 °F 40% 29.87 in 10.0 mi West 21.9 mph 28.8 mph N/A   Mostly Cloudy
2:35 PM 33.1 °F 20.1 °F 9.9 °F 38% 29.88 in 10.0 mi West 25.3 mph 31.1 mph N/A   Mostly Cloudy
3:15 PM 34.0 °F 23.8 °F 10.9 °F 38% 29.88 in 10.0 mi WNW 16.1 mph 38.0 mph N/A   Mostly Cloudy
3:55 PM 32.0 °F 19.2 °F 9.7 °F 39% 29.89 in 10.0 mi West 23.0 mph 32.2 mph N/A   Mostly Cloudy
4:15 PM 32.0 °F 20.1 °F 10.9 °F 42% 29.90 in 10.0 mi West 19.6 mph 27.6 mph N/A   Scattered Clouds
4:35 PM 32.0 °F 19.2 °F 10.0 °F 40% 29.90 in 10.0 mi WNW 23.0 mph 33.4 mph N/A   Scattered Clouds
4:55 PM 31.8 °F 19.9 °F 10.2 °F 41% 29.91 in 10.0 mi West 19.6 mph 26.5 mph N/A   Scattered Clouds
5:15 PM 32.0 °F 19.8 °F 10.9 °F 42% 29.91 in 10.0 mi West 20.7 mph 31.1 mph N/A   Mostly Cloudy
5:35 PM 31.3 °F 20.3 °F 11.1 °F 43% 29.92 in 10.0 mi West 16.1 mph 31.1 mph N/A   Scattered Clouds
6:15 PM 31.1 °F 18.9 °F 11.8 °F 45% 29.94 in 10.0 mi West 19.6 mph 26.5 mph N/A   Mostly Cloudy
6:35 PM 30.9 °F 19.1 °F 12.2 °F 46% 29.95 in 10.0 mi WNW 18.4 mph 29.9 mph N/A   Overcast
6:55 PM 30.9 °F 20.2 °F 12.4 °F 46% 29.96 in 10.0 mi West 15.0 mph 23.0 mph N/A   Overcast
7:15 PM 31.1 °F 19.7 °F 12.0 °F 45% 29.96 in 10.0 mi WNW 17.3 mph 25.3 mph N/A   Overcast
7:35 PM 30.9 °F 18.7 °F 12.2 °F 46% 29.96 in 10.0 mi WNW 19.6 mph 29.9 mph N/A   Overcast
7:55 PM 30.2 °F 16.5 °F 12.4 °F 48% 29.96 in 10.0 mi WNW 24.2 mph 29.9 mph N/A   Scattered Clouds
8:15 PM 30.2 °F 15.9 °F 12.2 °F 47% 29.97 in 10.0 mi WNW 26.5 mph 34.5 mph N/A   Scattered Clouds
8:35 PM 29.8 °F 18.9 °F 12.0 °F 48% 29.98 in 10.0 mi WNW 15.0 mph 32.2 mph N/A   Scattered Clouds
8:55 PM 29.3 °F 16.6 °F 10.6 °F 46% 29.98 in 10.0 mi WNW 19.6 mph 32.2 mph N/A   Scattered Clouds
9:15 PM 28.9 °F 15.1 °F 10.2 °F 46% 29.98 in 10.0 mi WNW 23.0 mph 31.1 mph N/A   Scattered Clouds
9:35 PM 28.8 °F 17.9 °F 9.5 °F 45% 29.98 in 10.0 mi WNW 13.8 mph 24.2 mph N/A   Clear
9:55 PM 28.4 °F 16.2 °F 10.2 °F 47% 29.98 in 10.0 mi WNW 17.3 mph 24.2 mph N/A   Clear
10:15 PM 28.2 °F 17.7 °F 10.6 °F 48% 29.99 in 10.0 mi West 12.7 mph 20.7 mph N/A   Clear
10:35 PM 28.2 °F 15.2 °F 10.2 °F 47% 29.99 in 10.0 mi WNW 19.6 mph 23.0 mph N/A   Clear
10:55 PM 28.0 °F 16.1 °F 10.4 °F 48% 29.99 in 10.0 mi WNW 16.1 mph 25.3 mph N/A   Clear
11:15 PM 27.7 °F 13.1 °F 10.4 °F 48% 29.99 in 10.0 mi WNW 24.2 mph 31.1 mph N/A   Clear
11:35 PM 27.5 °F 16.3 °F 10.2 °F 48% 30.00 in 10.0 mi WNW 13.8 mph 25.3 mph N/A   Clear
11:55 PM 27.3 °F 16.6 °F 10.2 °F 49% 30.01 in 10.0 mi WNW 12.7 mph 24.2 mph N/A   Clear